Regional Weather Roundup
Issued by NWS

Home | Current Version | Previous Version | Graphics & Text | Print | Product List | Glossary Off
Versions: 1 2 3 4 5 6 7 8 9 10 11 12 13 14 15 16 17 18 19 20 21 22 23 24 25 26 27 28 29 30 31 32 33 34 35 36 37 38 39 40 41 42 43 44 45 46 47 48 49 50

000
ASUS43 KBIS 050720
RWRND

NORTH DAKOTA REGIONAL WEATHER ROUNDUP
NATIONAL WEATHER SERVICE BISMARCK ND
100 AM CST THU MAR 05 2015

NOTE: "FAIR" INDICATES FEW OR NO CLOUDS BELOW 12,000 FEET WITH NO
SIGNIFICANT WEATHER AND/OR OBSTRUCTIONS TO VISIBILITY.


NDZ001>003-009>011-017-050800-
NORTHWEST NORTH DAKOTA

CITY           SKY/WX    TMP DP  RH WIND       PRES   REMARKS
WILLISTON      PTCLDY     1  -9  62 S6        30.19F WCI -10
MINOT          CLEAR     -6 -15  65 S10       30.25F WCI -24
MINOT AFB      CLEAR    -14 -20  76 SE5       30.25F WCI -27
$$

NDZ018>021-031>035-040>046-050800-
SOUTHWEST NORTH DAKOTA

CITY           SKY/WX    TMP DP  RH WIND       PRES   REMARKS
BISMARCK       PTCLDY    -7 -13  75 SE5       30.33F WCI -18
DICKINSON      CLEAR     -1  -9  68 S10       30.15F WCI -17
GARRISON         N/A    -10 -15  78 CALM      30.26F
HETTINGER ARPT PTCLDY    -1  -9  68 S3        30.21F
$$

NDZ004>008-012>016-024-026-027-054-050800-
NORTHEAST NORTH DAKOTA

CITY           SKY/WX    TMP DP  RH WIND       PRES   REMARKS
GRAND FORKS    FAIR     -14 -20  74 SW6       30.39F WCI -28
GRND FRKS AFB  CLEAR    -11 -19  67 SW5       30.38S WCI -23
DEVILS LAKE    PTCLDY    -9 -18  64 SW6       30.31S WCI -23
$$

NDZ022-023-025-028>030-036>039-047>053-050800-
SOUTHEAST NORTH DAKOTA

CITY           SKY/WX    TMP DP  RH WIND       PRES   REMARKS
FARGO          CLEAR     -7 -14  71 W9        30.43S WCI -24
JAMESTOWN      CLEAR    -12 -18  74 S7        30.34F WCI -27
$$



USA.gov is the U.S. government's official web portal to all federal, state and local government web resources and services.